| time (UTC) | temp C | wind direction | speed KPH | gust KPH | rain 1hr cm | rain 24hr cm | rain mn cm | humidity % | barometer mb |
| 20260508145422 | 13 | 169 | 4.8 | 12.9 | 0.00 | 0.00 | 0.00 | 50 | 1017.5 |
| 20260508144918 | 13 | 184 | 4.8 | 11.3 | 0.00 | 0.00 | 0.00 | 52 | 1017.4 |
| 20260508144608 | 12 | 174 | 3.2 | 11.3 | 0.00 | 0.00 | 0.00 | 53 | 1018.0 |
| 20260508144414 | 12 | 190 | 4.8 | 11.3 | 0.00 | 0.00 | 0.00 | 50 | 1017.3 |
| 20260508143913 | 12 | 254 | 4.8 | 11.3 | 0.00 | 0.00 | 0.00 | 52 | 1017.4 |
| 20260508143405 | 12 | 286 | 4.8 | 11.3 | 0.00 | 0.00 | 0.00 | 56 | 1017.4 |
| 20260508143131 | 12 | 213 | 4.8 | 11.3 | 0.00 | 0.00 | 0.00 | 55 | 1017.4 |
| 20260508143041 | 12 | 197 | 4.8 | 9.7 | 0.00 | 0.00 | 0.00 | 52 | 1018.1 |
| 20260508142357 | 12 | 153 | 4.8 | 11.3 | 0.00 | 0.00 | 0.00 | 55 | 1017.4 |
| 20260508141849 | 12 | 191 | 4.8 | 11.3 | 0.00 | 0.00 | 0.00 | 54 | 1017.3 |
| 20260508141533 | 11 | 233 | 3.2 | 11.3 | 0.00 | 0.00 | 0.00 | 57 | 1018.1 |
| 20260508141345 | 11 | 190 | 3.2 | 12.9 | 0.00 | 0.00 | 0.00 | 59 | 1017.4 |
| 20260508140842 | 11 | 248 | 4.8 | 12.9 | 0.00 | 0.00 | 0.00 | 58 | 1017.4 |
| 20260508140333 | 11 | 223 | 4.8 | 11.3 | 0.00 | 0.00 | 0.00 | 56 | 1017.4 |
| 20260508140017 | 11 | 225 | 4.8 | 11.3 | 0.00 | 0.00 | 0.00 | 55 | 1018.2 |
| 20260508135826 | 11 | 250 | 3.2 | 8.0 | 0.00 | 0.00 | 0.00 | 58 | 1017.4 |
| 20260508135321 | 11 | 263 | 1.6 | 8.0 | 0.00 | 0.00 | 0.00 | 59 | 1017.5 |
| 20260508135049 | 11 | 223 | 1.6 | 6.4 | 0.00 | 0.00 | 0.00 | 65 | 1017.4 |
| 20260508134511 | 10 | 266 | 0.0 | 6.4 | 0.00 | 0.00 | 0.00 | 70 | 1018.2 |
| 20260508134312 | 10 | 251 | 0.0 | 6.4 | 0.00 | 0.00 | 0.00 | 72 | 1017.5 |
| 20260508133806 | 10 | 286 | 0.0 | 0.0 | 0.00 | 0.00 | 0.00 | 75 | 1017.4 |
| 20260508133529 | 10 | 306 | 0.0 | 0.0 | 0.00 | 0.00 | 0.00 | 77 | 1017.3 |
| 20260508133046 | 10 | 292 | 0.0 | 0.0 | 0.00 | 0.00 | 0.00 | 79 | 1018.1 |
| 20260508132752 | 10 | 292 | 0.0 | 0.0 | 0.00 | 0.00 | 0.00 | 81 | 1017.3 |
| 20260508132246 | 9 | 292 | 0.0 | 0.0 | 0.00 | 0.00 | 0.00 | 82 | 1017.1 |
| 20260508131735 | 9 | 292 | 0.0 | 0.0 | 0.00 | 0.00 | 0.00 | 83 | 1017.0 |
| 20260508131509 | 8 | 291 | 0.0 | 0.0 | 0.00 | 0.00 | 0.00 | 83 | 1017.8 |
| 20260508131214 | 8 | 267 | 0.0 | 0.0 | 0.00 | 0.00 | 0.00 | 85 | 1016.9 |
| 20260508130937 | 8 | 230 | 0.0 | 0.0 | 0.00 | 0.00 | 0.00 | 85 | 1017.3 |
| 20260508130151 | 8 | 33 | 0.0 | 0.0 | 0.00 | 0.00 | 0.00 | 87 | 1017.0 |
| 20260508130029 | 7 | 33 | 0.0 | 0.0 | 0.00 | 0.00 | 0.00 | 88 | 1017.8 |
| 20260508125903 | 7 | 33 | 0.0 | 0.0 | 0.00 | 0.00 | 0.00 | 88 | 1017.1 |
| 20260508125738 | 7 | 33 | 0.0 | 0.0 | 0.00 | 0.00 | 0.00 | 88 | 1017.0 |
| 20260508124621 | 7 | 33 | 0.0 | 0.0 | 0.00 | 0.00 | 0.00 | 89 | 1017.1 |
| 20260508124603 | 7 | 33 | 0.0 | 0.0 | 0.00 | 0.00 | 0.00 | 89 | 1017.9 |
| 20260508124111 | 6 | 33 | 0.0 | 0.0 | 0.00 | 0.00 | 0.00 | 89 | 1017.3 |
| 20260508123601 | 6 | 33 | 0.0 | 0.0 | 0.00 | 0.00 | 0.00 | 89 | 1017.4 |
| 20260508123047 | 6 | 33 | 0.0 | 0.0 | 0.00 | 0.00 | 0.00 | 89 | 1017.4 |
| 20260508123042 | 6 | 33 | 0.0 | 0.0 | 0.00 | 0.00 | 0.00 | 89 | 1018.2 |
| 20260508122536 | 5 | 33 | 0.0 | 0.0 | 0.00 | 0.00 | 0.00 | 89 | 1017.5 |
| 20260508122026 | 5 | 33 | 0.0 | 0.0 | 0.00 | 0.00 | 0.00 | 89 | 1017.6 |
| 20260508121556 | 4 | 33 | 0.0 | 0.0 | 0.00 | 0.00 | 0.00 | 89 | 1018.3 |
| 20260508121516 | 4 | 33 | 0.0 | 0.0 | 0.00 | 0.00 | 0.00 | 89 | 1017.5 |
| 20260508121006 | 4 | 33 | 0.0 | 0.0 | 0.00 | 0.00 | 0.00 | 89 | 1017.4 |
| 20260508120457 | 3 | 33 | 0.0 | 0.0 | 0.00 | 0.00 | 0.00 | 89 | 1017.3 |
| 20260508120022 | 3 | 33 | 0.0 | 0.0 | 0.00 | 0.00 | 0.00 | 89 | 1017.9 |
| 20260508115942 | 3 | 33 | 0.0 | 0.0 | 0.00 | 0.00 | 0.00 | 89 | 1017.3 |
| 20260508115434 | 2 | 33 | 0.0 | 0.0 | 0.00 | 0.00 | 0.00 | 88 | 1017.0 |
| 20260508114915 | 2 | 33 | 0.0 | 0.0 | 0.00 | 0.00 | 0.00 | 88 | 1016.9 |
| 20260508114501 | 1 | 5 | 0.0 | 0.0 | 0.00 | 0.03 | 0.00 | 88 | 1017.7 |
| 20260508114414 | 2 | 5 | 0.0 | 0.0 | 0.00 | 0.00 | 0.00 | 88 | 1016.8 |
| 20260508113914 | 1 | 5 | 0.0 | 0.0 | 0.00 | 0.00 | 0.00 | 88 | 1016.8 |
| 20260508113405 | 1 | 5 | 0.0 | 0.0 | 0.00 | 0.00 | 0.00 | 88 | 1016.9 |
| 20260508113031 | 1 | 5 | 0.0 | 0.0 | 0.00 | 0.03 | 0.00 | 88 | 1017.6 |
| 20260508112842 | 1 | 5 | 0.0 | 0.0 | 0.00 | 0.00 | 0.00 | 88 | 1016.8 |
| 20260508112332 | 1 | 5 | 0.0 | 0.0 | 0.00 | 0.00 | 0.00 | 87 | 1016.7 |
| 20260508111824 | 1 | 5 | 0.0 | 0.0 | 0.00 | 0.00 | 0.00 | 87 | 1016.5 |
| 20260508111556 | 1 | 5 | 0.0 | 0.0 | 0.00 | 0.03 | 0.00 | 87 | 1017.3 |
| 20260508111314 | 1 | 5 | 0.0 | 0.0 | 0.00 | 0.00 | 0.00 | 87 | 1016.5 |
| 20260508110755 | 1 | 5 | 0.0 | 0.0 | 0.00 | 0.00 | 0.00 | 87 | 1016.5 |
| 20260508110245 | 1 | 5 | 0.0 | 0.0 | 0.00 | 0.03 | 0.00 | 87 | 1016.5 |
| 20260508110014 | 1 | 5 | 0.0 | 0.0 | 0.00 | 0.03 | 0.00 | 87 | 1017.2 |
| 20260508105731 | 1 | 5 | 0.0 | 0.0 | 0.00 | 0.03 | 0.00 | 87 | 1016.5 |
| 20260508105220 | 1 | 5 | 0.0 | 0.0 | 0.00 | 0.03 | 0.00 | 87 | 1016.6 |
| 20260508104942 | 1 | 5 | 0.0 | 0.0 | 0.00 | 0.03 | 0.00 | 87 | 1016.4 |
| 20260508104546 | 1 | 5 | 0.0 | 0.0 | 0.00 | 0.03 | 0.00 | 87 | 1017.0 |
| 20260508104201 | 1 | 5 | 0.0 | 0.0 | 0.00 | 0.03 | 0.00 | 87 | 1016.4 |
| 20260508103652 | 1 | 5 | 0.0 | 0.0 | 0.00 | 0.03 | 0.00 | 87 | 1016.4 |
| 20260508103141 | 1 | 5 | 0.0 | 0.0 | 0.00 | 0.03 | 0.00 | 87 | 1016.4 |
| 20260508103015 | 1 | 5 | 0.0 | 0.0 | 0.00 | 0.03 | 0.00 | 87 | 1017.0 |
| 20260508102628 | 1 | 5 | 0.0 | 0.0 | 0.00 | 0.03 | 0.00 | 87 | 1016.4 |
| 20260508102116 | 1 | 5 | 0.0 | 0.0 | 0.00 | 0.03 | 0.00 | 87 | 1016.3 |
| 20260508101607 | 1 | 5 | 0.0 | 0.0 | 0.00 | 0.03 | 0.00 | 87 | 1016.3 |
| 20260508101544 | 1 | 5 | 0.0 | 0.0 | 0.00 | 0.03 | 0.00 | 87 | 1016.9 |
| 20260508101056 | 1 | 5 | 0.0 | 0.0 | 0.00 | 0.03 | 0.00 | 87 | 1016.3 |
| 20260508100546 | 1 | 5 | 0.0 | 0.0 | 0.00 | 0.03 | 0.00 | 87 | 1016.3 |
| 20260508100309 | 1 | 5 | 0.0 | 0.0 | 0.00 | 0.03 | 0.00 | 87 | 1016.2 |
| 20260508100013 | 1 | 5 | 0.0 | 0.0 | 0.00 | 0.03 | 0.00 | 87 | 1016.7 |
| 20260508095522 | 1 | 5 | 0.0 | 0.0 | 0.00 | 0.03 | 0.00 | 87 | 1016.2 |
| 20260508095012 | 1 | 5 | 0.0 | 0.0 | 0.00 | 0.03 | 0.00 | 87 | 1016.2 |
| 20260508094538 | 1 | 5 | 0.0 | 0.0 | 0.00 | 0.03 | 0.00 | 87 | 1016.6 |
| 20260508094454 | 2 | 5 | 0.0 | 0.0 | 0.00 | 0.03 | 0.00 | 87 | 1016.2 |
| 20260508093946 | 2 | 5 | 0.0 | 0.0 | 0.00 | 0.03 | 0.00 | 87 | 1016.1 |
| 20260508093434 | 2 | 5 | 0.0 | 0.0 | 0.00 | 0.03 | 0.00 | 87 | 1016.1 |
| 20260508093156 | 2 | 5 | 0.0 | 0.0 | 0.00 | 0.03 | 0.00 | 87 | 1016.1 |
| 20260508093009 | 2 | 5 | 0.0 | 0.0 | 0.00 | 0.03 | 0.00 | 87 | 1016.6 |
| 20260508092411 | 2 | 5 | 0.0 | 0.0 | 0.00 | 0.03 | 0.00 | 87 | 1016.2 |
| 20260508091859 | 2 | 5 | 0.0 | 0.0 | 0.00 | 0.03 | 0.00 | 87 | 1016.3 |
| 20260508091528 | 2 | 5 | 0.0 | 0.0 | 0.00 | 0.03 | 0.00 | 87 | 1016.6 |
| 20260508091347 | 2 | 5 | 0.0 | 0.0 | 0.00 | 0.03 | 0.00 | 87 | 1016.2 |
| 20260508091108 | 2 | 5 | 0.0 | 0.0 | 0.00 | 0.03 | 0.00 | 87 | 1016.2 |
| 20260508090327 | 2 | 5 | 0.0 | 0.0 | 0.00 | 0.03 | 0.00 | 87 | 1016.1 |
| 20260508090115 | 2 | 5 | 0.0 | 0.0 | 0.00 | 0.03 | 0.00 | 87 | 1016.4 |
| 20260508085816 | 2 | 5 | 0.0 | 0.0 | 0.00 | 0.03 | 0.00 | 87 | 1016.1 |
| 20260508085306 | 2 | 5 | 0.0 | 0.0 | 0.00 | 0.03 | 0.00 | 87 | 1016.1 |
| 20260508084752 | 3 | 5 | 0.0 | 0.0 | 0.00 | 0.03 | 0.00 | 87 | 1016.1 |
| 20260508084526 | 3 | 5 | 0.0 | 0.0 | 0.00 | 0.03 | 0.00 | 87 | 1016.5 |
| 20260508084244 | 3 | 5 | 0.0 | 0.0 | 0.00 | 0.03 | 0.00 | 87 | 1016.2 |
| 20260508083732 | 3 | 5 | 0.0 | 0.0 | 0.00 | 0.03 | 0.00 | 87 | 1016.1 |
| 20260508083224 | 3 | 5 | 0.0 | 0.0 | 0.00 | 0.03 | 0.00 | 87 | 1016.1 |
| 20260508083100 | 3 | 5 | 0.0 | 0.0 | 0.00 | 0.03 | 0.00 | 87 | 1016.4 |
| 20260508082715 | 3 | 5 | 0.0 | 0.0 | 0.00 | 0.03 | 0.00 | 87 | 1016.2 |
| 20260508082200 | 3 | 5 | 0.0 | 0.0 | 0.00 | 0.03 | 0.00 | 87 | 1016.2 |
| 20260508081651 | 3 | 5 | 0.0 | 0.0 | 0.00 | 0.03 | 0.00 | 87 | 1016.1 |
| 20260508081527 | 3 | 5 | 0.0 | 0.0 | 0.00 | 0.03 | 0.00 | 87 | 1016.3 |
| 20260508081141 | 3 | 5 | 0.0 | 0.0 | 0.00 | 0.03 | 0.00 | 87 | 1016.1 |
| 20260508080902 | 3 | 5 | 0.0 | 0.0 | 0.00 | 0.03 | 0.00 | 87 | 1016.2 |
| 20260508080120 | 3 | 5 | 0.0 | 0.0 | 0.00 | 0.03 | 0.00 | 87 | 1016.2 |
| 20260508080058 | 3 | 5 | 0.0 | 0.0 | 0.00 | 0.03 | 0.00 | 87 | 1016.4 |
| 20260508075833 | 3 | 5 | 0.0 | 0.0 | 0.00 | 0.03 | 0.00 | 87 | 1015.9 |
| 20260508075128 | 3 | 5 | 0.0 | 0.0 | 0.00 | 0.03 | 0.00 | 87 | 1015.8 |
| 20260508075043 | 3 | 5 | 0.0 | 0.0 | 0.00 | 0.03 | 0.00 | 87 | 1015.9 |
| 20260508074752 | 4 | 5 | 0.0 | 0.0 | 0.00 | 0.03 | 0.00 | 87 | 1015.7 |
| 20260508074509 | 3 | 5 | 0.0 | 0.0 | 0.00 | 0.05 | 0.00 | 87 | 1016.0 |
| 20260508074124 | 3 | 5 | 0.0 | 0.0 | 0.00 | 0.03 | 0.00 | 87 | 1015.8 |
| 20260508073237 | 4 | 5 | 0.0 | 0.0 | 0.00 | 0.03 | 0.00 | 87 | 1015.7 |
| 20260508073147 | 4 | 5 | 0.0 | 0.0 | 0.00 | 0.05 | 0.00 | 87 | 1015.8 |
| 20260508072458 | 4 | 5 | 0.0 | 1.6 | 0.00 | 0.03 | 0.00 | 87 | 1015.5 |
| 20260508071949 | 4 | 5 | 0.0 | 3.2 | 0.00 | 0.05 | 0.00 | 87 | 1015.5 |
| 20260508071531 | 4 | 5 | 0.0 | 3.2 | 0.00 | 0.05 | 0.00 | 87 | 1015.6 |
| 20260508071449 | 4 | 5 | 1.6 | 3.2 | 0.00 | 0.05 | 0.00 | 87 | 1015.7 |
| 20260508070949 | 4 | 5 | 1.6 | 3.2 | 0.00 | 0.05 | 0.00 | 87 | 1015.4 |
| 20260508070446 | 4 | 5 | 1.6 | 4.8 | 0.00 | 0.05 | 0.00 | 87 | 1015.4 |
| 20260508070018 | 4 | 5 | 0.0 | 4.8 | 0.00 | 0.05 | 0.00 | 87 | 1015.5 |
| 20260508065938 | 4 | 5 | 1.6 | 4.8 | 0.00 | 0.05 | 0.00 | 87 | 1015.4 |
| 20260508065432 | 4 | 325 | 0.0 | 4.8 | 0.00 | 0.05 | 0.00 | 87 | 1015.2 |
| 20260508064922 | 4 | 298 | 0.0 | 0.0 | 0.00 | 0.05 | 0.00 | 87 | 1015.3 |
| 20260508064503 | 4 | 298 | 0.0 | 0.0 | 0.00 | 0.10 | 0.00 | 87 | 1015.4 |
| 20260508064422 | 4 | 298 | 0.0 | 0.0 | 0.00 | 0.05 | 0.00 | 87 | 1015.3 |
| 20260508063922 | 4 | 298 | 0.0 | 0.0 | 0.00 | 0.08 | 0.00 | 87 | 1015.4 |
| 20260508063418 | 5 | 298 | 0.0 | 0.0 | 0.00 | 0.10 | 0.00 | 87 | 1015.5 |
| 20260508063107 | 5 | 298 | 0.0 | 1.6 | 0.00 | 0.10 | 0.00 | 87 | 1015.5 |
| 20260508062914 | 5 | 298 | 0.0 | 1.6 | 0.00 | 0.10 | 0.00 | 87 | 1015.5 |
| 20260508062406 | 5 | 298 | 0.0 | 3.2 | 0.00 | 0.10 | 0.00 | 87 | 1015.4 |
| 20260508061859 | 5 | 298 | 0.0 | 3.2 | 0.00 | 0.10 | 0.00 | 87 | 1015.4 |
| 20260508061536 | 5 | 298 | 0.0 | 1.6 | 0.00 | 0.10 | 0.00 | 87 | 1015.5 |
| 20260508061351 | 5 | 298 | 0.0 | 0.0 | 0.00 | 0.10 | 0.00 | 87 | 1015.4 |
| 20260508060843 | 5 | 298 | 0.0 | 0.0 | 0.00 | 0.10 | 0.00 | 87 | 1015.5 |
| 20260508060336 | 5 | 298 | 0.0 | 0.0 | 0.00 | 0.10 | 0.00 | 87 | 1015.5 |
| 20260508060016 | 5 | 298 | 0.0 | 0.0 | 0.00 | 0.10 | 0.00 | 87 | 1015.5 |
| 20260508055834 | 5 | 298 | 0.0 | 1.6 | 0.00 | 0.10 | 0.00 | 87 | 1015.7 |
| 20260508055331 | 5 | 298 | 0.0 | 3.2 | 0.00 | 0.10 | 0.00 | 87 | 1015.7 |
| 20260508054824 | 5 | 298 | 0.0 | 3.2 | 0.00 | 0.10 | 0.00 | 87 | 1015.7 |
| 20260508054505 | 5 | 298 | 0.0 | 3.2 | 0.00 | 0.10 | 0.00 | 87 | 1015.6 |
| 20260508054323 | 5 | 298 | 0.0 | 3.2 | 0.00 | 0.10 | 0.00 | 87 | 1015.8 |
| 20260508053816 | 5 | 298 | 0.0 | 1.6 | 0.00 | 0.10 | 0.00 | 87 | 1015.7 |
| 20260508053310 | 4 | 298 | 0.0 | 1.6 | 0.00 | 0.10 | 0.00 | 87 | 1015.7 |
| 20260508053043 | 4 | 298 | 0.0 | 0.0 | 0.00 | 0.10 | 0.00 | 87 | 1015.6 |
| 20260508052802 | 4 | 298 | 0.0 | 0.0 | 0.00 | 0.10 | 0.00 | 87 | 1015.7 |
| 20260508052257 | 4 | 298 | 0.0 | 0.0 | 0.00 | 0.10 | 0.00 | 87 | 1015.7 |
| 20260508051742 | 4 | 298 | 0.0 | 0.0 | 0.00 | 0.10 | 0.00 | 87 | 1015.7 |
| 20260508051516 | 4 | 298 | 0.0 | 0.0 | 0.00 | 0.10 | 0.00 | 86 | 1015.4 |
| 20260508051502 | 4 | 298 | 0.0 | 0.0 | 0.00 | 0.10 | 0.00 | 86 | 1015.5 |
| 20260508050721 | 4 | 298 | 0.0 | 0.0 | 0.00 | 0.10 | 0.00 | 86 | 1015.4 |
| 20260508050214 | 4 | 298 | 0.0 | 1.6 | 0.00 | 0.10 | 0.00 | 86 | 1015.3 |
| 20260508050049 | 4 | 298 | 0.0 | 1.6 | 0.00 | 0.10 | 0.00 | 86 | 1015.1 |
| 20260508045703 | 4 | 298 | 0.0 | 1.6 | 0.00 | 0.10 | 0.00 | 86 | 1015.4 |
| 20260508045153 | 4 | 298 | 0.0 | 1.6 | 0.00 | 0.10 | 0.00 | 86 | 1015.3 |
| 20260508044631 | 4 | 298 | 0.0 | 1.6 | 0.00 | 0.10 | 0.00 | 86 | 1015.3 |
| 20260508044507 | 4 | 298 | 0.0 | 0.0 | 0.00 | 0.10 | 0.00 | 86 | 1015.1 |
| 20260508044114 | 4 | 298 | 0.0 | 0.0 | 0.00 | 0.10 | 0.00 | 86 | 1015.2 |
| 20260508043604 | 4 | 298 | 0.0 | 0.0 | 0.00 | 0.10 | 0.00 | 86 | 1015.2 |
| 20260508043055 | 4 | 298 | 0.0 | 0.0 | 0.00 | 0.10 | 0.00 | 86 | 1015.2 |
| 20260508043033 | 4 | 298 | 0.0 | 0.0 | 0.00 | 0.10 | 0.00 | 86 | 1014.9 |
| 20260508042816 | 4 | 298 | 0.0 | 0.0 | 0.00 | 0.10 | 0.00 | 86 | 1015.0 |
| 20260508042307 | 4 | 298 | 0.0 | 0.0 | 0.00 | 0.10 | 0.00 | 86 | 1014.9 |
| 20260508041559 | 4 | 298 | 0.0 | 1.6 | 0.00 | 0.10 | 0.00 | 86 | 1014.5 |
| 20260508041519 | 4 | 298 | 0.0 | 1.6 | 0.00 | 0.10 | 0.00 | 86 | 1014.9 |
| 20260508041009 | 4 | 298 | 0.0 | 3.2 | 0.00 | 0.10 | 0.00 | 86 | 1014.9 |
| 20260508040459 | 4 | 298 | 0.0 | 3.2 | 0.00 | 0.10 | 0.00 | 86 | 1015.0 |
| 20260508040028 | 4 | 227 | 0.0 | 0.0 | 0.00 | 0.10 | 0.00 | 86 | 1014.6 |
| 20260508035950 | 5 | 227 | 0.0 | 0.0 | 0.00 | 0.10 | 0.10 | 86 | 1015.0 |
| 20260508035441 | 5 | 227 | 0.0 | 0.0 | 0.00 | 0.10 | 0.10 | 86 | 1015.0 |
| 20260508034931 | 5 | 227 | 0.0 | 0.0 | 0.00 | 0.10 | 0.10 | 85 | 1015.0 |
| 20260508034558 | 5 | 227 | 0.0 | 0.0 | 0.00 | 0.10 | 0.10 | 85 | 1014.5 |
| 20260508034416 | 5 | 227 | 0.0 | 0.0 | 0.00 | 0.10 | 0.10 | 85 | 1014.9 |
| 20260508034138 | 5 | 227 | 0.0 | 0.0 | 0.00 | 0.10 | 0.10 | 86 | 1014.9 |
| 20260508033356 | 5 | 227 | 0.0 | 0.0 | 0.00 | 0.10 | 0.10 | 85 | 1014.9 |
| 20260508033119 | 5 | 227 | 0.0 | 0.0 | 0.00 | 0.10 | 0.10 | 85 | 1014.9 |
| 20260508033028 | 5 | 227 | 0.0 | 0.0 | 0.00 | 0.10 | 0.10 | 85 | 1014.5 |
| 20260508032337 | 5 | 227 | 0.0 | 0.0 | 0.00 | 0.10 | 0.10 | 85 | 1014.9 |
| 20260508031826 | 5 | 227 | 0.0 | 0.0 | 0.00 | 0.10 | 0.10 | 85 | 1014.7 |
| 20260508031559 | 5 | 227 | 0.0 | 0.0 | 0.00 | 0.10 | 0.10 | 85 | 1014.2 |
| 20260508031323 | 5 | 227 | 0.0 | 0.0 | 0.00 | 0.10 | 0.10 | 85 | 1014.6 |
| 20260508030823 | 5 | 227 | 0.0 | 0.0 | 0.00 | 0.10 | 0.10 | 85 | 1014.6 |
| 20260508030319 | 5 | 227 | 0.0 | 0.0 | 0.00 | 0.10 | 0.10 | 85 | 1014.6 |
| 20260508030002 | 5 | 227 | 0.0 | 0.0 | 0.00 | 0.25 | 0.10 | 85 | 1014.0 |
| 20260508025821 | 5 | 227 | 0.0 | 0.0 | 0.00 | 0.10 | 0.10 | 85 | 1014.5 |
| 20260508025543 | 5 | 227 | 0.0 | 0.0 | 0.00 | 0.10 | 0.10 | 85 | 1014.6 |
| 20260508025033 | 5 | 227 | 0.0 | 0.0 | 0.00 | 0.10 | 0.10 | 85 | 1014.6 |
| 20260508024917 | 5 | 227 | 0.0 | 0.0 | 0.00 | 0.15 | 0.10 | 84 | 1014.5 |
| 20260508024546 | 5 | 227 | 0.0 | 0.0 | 0.00 | 0.25 | 0.10 | 84 | 1014.0 |
| 20260508023803 | 5 | 227 | 0.0 | 0.0 | 0.00 | 0.15 | 0.10 | 84 | 1014.5 |
| 20260508023304 | 5 | 227 | 0.0 | 0.0 | 0.00 | 0.15 | 0.10 | 84 | 1014.3 |
| 20260508023040 | 5 | 227 | 0.0 | 0.0 | 0.00 | 0.25 | 0.10 | 84 | 1013.8 |
| 20260508022754 | 6 | 227 | 0.0 | 0.0 | 0.00 | 0.18 | 0.10 | 84 | 1014.4 |
| 20260508022245 | 6 | 227 | 0.0 | 0.0 | 0.00 | 0.18 | 0.10 | 84 | 1014.3 |
| 20260508021734 | 6 | 227 | 0.0 | 0.0 | 0.00 | 0.20 | 0.10 | 84 | 1014.3 |
| 20260508021507 | 6 | 227 | 0.0 | 0.0 | 0.00 | 0.25 | 0.10 | 84 | 1013.7 |
| 20260508021220 | 6 | 227 | 0.0 | 0.0 | 0.00 | 0.20 | 0.10 | 84 | 1014.2 |
| 20260508020711 | 6 | 227 | 0.0 | 0.0 | 0.00 | 0.20 | 0.10 | 84 | 1013.9 |
| 20260508020704 | 6 | 227 | 0.0 | 0.0 | 0.00 | 0.23 | 0.10 | 84 | 1014.0 |
| 20260508020045 | 6 | 227 | 0.0 | 0.0 | 0.00 | 0.25 | 0.10 | 84 | 1013.4 |
| 20260508015652 | 6 | 227 | 0.0 | 0.0 | 0.00 | 0.25 | 0.10 | 84 | 1014.0 |
| 20260508015141 | 6 | 227 | 0.0 | 0.0 | 0.00 | 0.25 | 0.10 | 83 | 1013.9 |
| 20260508014630 | 6 | 227 | 0.0 | 0.0 | 0.00 | 0.25 | 0.10 | 83 | 1013.8 |
| 20260508014504 | 6 | 227 | 0.0 | 0.0 | 0.00 | 0.51 | 0.10 | 83 | 1013.2 |
| 20260508014115 | 6 | 227 | 0.0 | 0.0 | 0.00 | 0.25 | 0.10 | 83 | 1013.6 |
| 20260508013604 | 6 | 227 | 0.0 | 3.2 | 0.00 | 0.25 | 0.10 | 82 | 1013.5 |
| 20260508013317 | 7 | 227 | 1.6 | 3.2 | 0.00 | 0.25 | 0.10 | 82 | 1013.5 |
| 20260508013024 | 7 | 227 | 0.0 | 3.2 | 0.00 | 0.51 | 0.10 | 82 | 1012.8 |
| 20260508012538 | 7 | 227 | 0.0 | 3.2 | 0.00 | 0.36 | 0.10 | 82 | 1013.4 |
| 20260508012027 | 7 | 227 | 0.0 | 1.6 | 0.00 | 0.43 | 0.10 | 82 | 1013.1 |
| 20260508011736 | 7 | 227 | 0.0 | 3.2 | 0.00 | 0.48 | 0.10 | 81 | 1013.1 |
| 20260508011611 | 7 | 227 | 0.0 | 3.2 | 0.00 | 0.46 | 0.10 | 82 | 1013.2 |
| 20260508011605 | 7 | 227 | 0.0 | 3.2 | 0.00 | 0.51 | 0.10 | 82 | 1012.5 |
| 20260508010451 | 7 | 227 | 0.0 | 1.6 | 0.00 | 0.51 | 0.10 | 80 | 1013.1 |
| 20260508010020 | 8 | 227 | 0.0 | 1.6 | 0.00 | 0.51 | 0.10 | 80 | 1012.1 |
| 20260508005940 | 8 | 227 | 0.0 | 1.6 | 0.00 | 0.51 | 0.10 | 80 | 1013.0 |
| 20260508005431 | 8 | 227 | 0.0 | 1.6 | 0.00 | 0.51 | 0.10 | 79 | 1012.8 |
| 20260508004923 | 8 | 227 | 0.0 | 0.0 | 0.00 | 0.51 | 0.10 | 79 | 1012.8 |
| 20260508004559 | 8 | 227 | 0.0 | 0.0 | 0.00 | 0.51 | 0.10 | 79 | 1012.0 |
| 20260508004411 | 8 | 227 | 0.0 | 0.0 | 0.00 | 0.51 | 0.10 | 79 | 1012.8 |
| 20260508003856 | 8 | 227 | 0.0 | 3.2 | 0.00 | 0.51 | 0.10 | 78 | 1012.6 |
| 20260508003347 | 9 | 227 | 1.6 | 3.2 | 0.00 | 0.51 | 0.10 | 78 | 1012.7 |
| 20260508003018 | 9 | 227 | 0.0 | 3.2 | 0.00 | 0.51 | 0.10 | 76 | 1011.8 |
| 20260508002837 | 10 | 227 | 0.0 | 3.2 | 0.00 | 0.51 | 0.10 | 76 | 1012.6 |
| 20260508002327 | 10 | 227 | 0.0 | 1.6 | 0.00 | 0.51 | 0.10 | 74 | 1012.6 |
| 20260508001818 | 10 | 227 | 0.0 | 1.6 | 0.00 | 0.51 | 0.10 | 73 | 1012.7 |
| 20260508001809 | 10 | 227 | 0.0 | 1.6 | 0.00 | 0.51 | 0.10 | 71 | 1012.6 |
| 20260508001550 | 10 | 227 | 0.0 | 0.0 | 0.00 | 0.51 | 0.10 | 72 | 1011.7 |
| 20260508000752 | 11 | 227 | 0.0 | 1.6 | 0.00 | 0.51 | 0.10 | 71 | 1012.6 |
| 20260508000243 | 11 | 227 | 0.0 | 1.6 | 0.00 | 0.51 | 0.10 | 70 | 1012.6 |
| 20260508000015 | 11 | 227 | 0.0 | 1.6 | 0.00 | 0.51 | 0.10 | 69 | 1011.7 |
| 20260508000003 | 11 | 227 | 0.0 | 0.0 | 0.00 | 0.51 | 0.10 | 69 | 1012.7 |
| 20260507235224 | 11 | 227 | 1.6 | 3.2 | 0.00 | 0.51 | 0.10 | 68 | 1012.6 |
| 20260507234715 | 11 | 227 | 1.6 | 6.4 | 0.00 | 0.51 | 0.10 | 68 | 1012.7 |
| 20260507234550 | 11 | 227 | 0.0 | 6.4 | 0.00 | 0.51 | 0.10 | 67 | 1011.7 |
| 20260507234205 | 11 | 227 | 1.6 | 6.4 | 0.00 | 0.51 | 0.10 | 67 | 1012.6 |
| 20260507233651 | 12 | 248 | 1.6 | 4.8 | 0.00 | 0.51 | 0.10 | 66 | 1012.6 |
| 20260507233139 | 12 | 222 | 1.6 | 11.3 | 0.00 | 0.51 | 0.10 | 66 | 1012.4 |
| 20260507233117 | 12 | 222 | 1.6 | 11.3 | 0.00 | 0.51 | 0.10 | 65 | 1011.5 |
| 20260507232634 | 12 | 240 | 1.6 | 11.3 | 0.00 | 0.51 | 0.10 | 65 | 1012.4 |
| 20260507232131 | 12 | 245 | 3.2 | 11.3 | 0.00 | 0.51 | 0.10 | 64 | 1012.4 |
| 20260507231622 | 12 | 255 | 3.2 | 11.3 | 0.00 | 0.51 | 0.10 | 64 | 1012.6 |
| 20260507231601 | 12 | 246 | 1.6 | 11.3 | 0.00 | 0.51 | 0.10 | 65 | 1011.6 |
| 20260507231350 | 12 | 237 | 3.2 | 12.9 | 0.00 | 0.51 | 0.10 | 65 | 1012.6 |
| 20260507230610 | 12 | 248 | 4.8 | 12.9 | 0.00 | 0.51 | 0.10 | 65 | 1012.4 |
| 20260507230108 | 12 | 246 | 3.2 | 12.9 | 0.00 | 0.51 | 0.10 | 65 | 1012.4 |
| 20260507225602 | 12 | 281 | 3.2 | 14.5 | 0.00 | 0.51 | 0.10 | 65 | 1012.4 |
| 20260507225329 | 12 | 241 | 3.2 | 14.5 | 0.00 | 0.51 | 0.10 | 65 | 1012.4 |
| 20260507224551 | 12 | 226 | 3.2 | 11.3 | 0.00 | 0.51 | 0.10 | 65 | 1012.4 |
| 20260507224527 | 12 | 226 | 1.6 | 11.3 | 0.00 | 0.51 | 0.10 | 65 | 1011.4 |
| 20260507224044 | 12 | 254 | 3.2 | 14.5 | 0.00 | 0.51 | 0.10 | 66 | 1012.2 |
| 20260507223520 | 12 | 261 | 3.2 | 14.5 | 0.00 | 0.51 | 0.10 | 66 | 1012.2 |
| 20260507223051 | 12 | 325 | 0.0 | 6.4 | 0.00 | 0.51 | 0.10 | 66 | 1011.2 |
| 20260507223019 | 12 | 325 | 1.6 | 6.4 | 0.00 | 0.51 | 0.10 | 66 | 1012.2 |
| 20260507222525 | 12 | 246 | 1.6 | 4.8 | 0.00 | 0.51 | 0.10 | 67 | 1012.0 |
| 20260507222519 | 12 | 266 | 1.6 | 6.4 | 0.00 | 0.51 | 0.10 | 66 | 1012.1 |
| 20260507221744 | 12 | 225 | 1.6 | 4.8 | 0.00 | 0.51 | 0.10 | 68 | 1012.0 |
| 20260507221506 | 12 | 246 | 1.6 | 4.8 | 0.00 | 0.51 | 0.10 | 68 | 1011.0 |
| 20260507221007 | 12 | 282 | 3.2 | 19.3 | 0.00 | 0.51 | 0.10 | 66 | 1012.1 |
| 20260507220457 | 12 | 316 | 4.8 | 19.3 | 0.00 | 0.51 | 0.10 | 64 | 1011.9 |
| 20260507220036 | 12 | 321 | 1.6 | 20.9 | 0.00 | 0.51 | 0.10 | 66 | 1010.9 |
| 20260507215950 | 12 | 323 | 4.8 | 20.9 | 0.00 | 0.51 | 0.10 | 65 | 1012.0 |
| 20260507215446 | 12 | 256 | 4.8 | 20.9 | 0.00 | 0.51 | 0.10 | 67 | 1011.9 |
| 20260507214942 | 12 | 264 | 3.2 | 16.1 | 0.00 | 0.51 | 0.10 | 66 | 1011.9 |
| 20260507214530 | 12 | 214 | 1.6 | 16.1 | 0.00 | 0.51 | 0.10 | 66 | 1010.8 |
| 20260507214435 | 12 | 321 | 3.2 | 16.1 | 0.00 | 0.51 | 0.10 | 66 | 1012.0 |
| 20260507213932 | 12 | 277 | 3.2 | 16.1 | 0.00 | 0.51 | 0.10 | 65 | 1011.8 |
| 20260507213649 | 12 | 260 | 3.2 | 6.4 | 0.00 | 0.51 | 0.10 | 69 | 1011.8 |
| 20260507213058 | 12 | 290 | 1.6 | 17.7 | 0.00 | 0.51 | 0.10 | 69 | 1010.8 |
| 20260507212917 | 12 | 312 | 4.8 | 19.3 | 0.00 | 0.51 | 0.10 | 71 | 1011.8 |
| 20260507212415 | 12 | 215 | 4.8 | 19.3 | 0.00 | 0.51 | 0.10 | 68 | 1011.7 |
| 20260507211906 | 12 | 257 | 6.4 | 12.9 | 0.00 | 0.51 | 0.10 | 71 | 1011.7 |
| 20260507211547 | 12 | 258 | 4.8 | 12.9 | 0.00 | 0.51 | 0.10 | 72 | 1010.5 |
| 20260507211357 | 12 | 227 | 4.8 | 12.9 | 0.00 | 0.51 | 0.10 | 71 | 1011.7 |
| 20260507210850 | 12 | 243 | 3.2 | 14.5 | 0.00 | 0.51 | 0.10 | 72 | 1011.7 |
| 20260507210345 | 11 | 260 | 3.2 | 14.5 | 0.00 | 0.51 | 0.10 | 72 | 1011.7 |
| 20260507210015 | 11 | 248 | 6.4 | 14.5 | 0.00 | 0.51 | 0.10 | 73 | 1010.5 |
| 20260507205833 | 11 | 227 | 4.8 | 16.1 | 0.00 | 0.51 | 0.10 | 73 | 1011.7 |
| 20260507205323 | 11 | 250 | 4.8 | 16.1 | 0.00 | 0.51 | 0.10 | 74 | 1011.8 |
| 20260507204814 | 11 | 240 | 4.8 | 17.7 | 0.00 | 0.51 | 0.10 | 74 | 1011.8 |
| 20260507204547 | 11 | 248 | 1.6 | 17.7 | 0.00 | 0.51 | 0.10 | 75 | 1010.6 |
| 20260507204305 | 11 | 234 | 3.2 | 17.7 | 0.00 | 0.51 | 0.10 | 75 | 1011.7 |
| 20260507203753 | 11 | 222 | 1.6 | 6.4 | 0.00 | 0.51 | 0.10 | 76 | 1011.8 |
| 20260507203239 | 11 | 234 | 3.2 | 11.3 | 0.00 | 0.51 | 0.10 | 76 | 1011.9 |
| 20260507203021 | 11 | 264 | 0.0 | 11.3 | 0.00 | 0.51 | 0.10 | 75 | 1010.6 |
| 20260507202730 | 11 | 246 | 1.6 | 11.3 | 0.00 | 0.51 | 0.10 | 76 | 1011.7 |
| 20260507202220 | 11 | 254 | 1.6 | 11.3 | 0.00 | 0.51 | 0.10 | 77 | 1011.7 |
| 20260507201941 | 11 | 239 | 1.6 | 11.3 | 0.00 | 0.51 | 0.10 | 76 | 1011.7 |
| 20260507201550 | 11 | 239 | 3.2 | 9.7 | 0.00 | 0.51 | 0.10 | 76 | 1010.4 |
| 20260507201200 | 11 | 227 | 0.0 | 4.8 | 0.00 | 0.51 | 0.10 | 77 | 1011.7 |
| 20260507200649 | 11 | 234 | 1.6 | 9.7 | 0.00 | 0.51 | 0.10 | 77 | 1011.7 |
| 20260507200135 | 11 | 321 | 3.2 | 9.7 | 0.00 | 0.51 | 0.10 | 77 | 1011.6 |
| 20260507200010 | 11 | 272 | 1.6 | 9.7 | 0.00 | 0.51 | 0.10 | 77 | 1010.5 |
| 20260507195618 | 11 | 238 | 1.6 | 11.3 | 0.00 | 0.51 | 0.10 | 76 | 1011.8 |
| 20260507195108 | 11 | 245 | 1.6 | 11.3 | 0.00 | 0.51 | 0.10 | 77 | 1011.8 |
| 20260507194559 | 11 | 235 | 1.6 | 6.4 | 0.00 | 0.51 | 0.10 | 77 | 1011.7 |
| 20260507194536 | 10 | 235 | 0.0 | 6.4 | 0.00 | 0.51 | 0.10 | 77 | 1010.4 |
| 20260507194319 | 10 | 235 | 3.2 | 6.4 | 0.00 | 0.51 | 0.10 | 77 | 1011.8 |
| 20260507193538 | 10 | 244 | 1.6 | 6.4 | 0.00 | 0.51 | 0.10 | 77 | 1011.8 |
| 20260507193023 | 10 | 257 | 0.0 | 4.8 | 0.00 | 0.51 | 0.10 | 78 | 1011.9 |
| 20260507193001 | 10 | 257 | 0.0 | 4.8 | 0.00 | 0.51 | 0.10 | 78 | 1010.7 |
| 20260507192513 | 10 | 241 | 1.6 | 11.3 | 0.00 | 0.51 | 0.10 | 77 | 1011.9 |
| 20260507191955 | 10 | 241 | 3.2 | 11.3 | 0.00 | 0.51 | 0.10 | 77 | 1012.0 |
| 20260507191525 | 10 | 229 | 1.6 | 9.7 | 0.00 | 0.51 | 0.10 | 77 | 1010.9 |
| 20260507191445 | 10 | 287 | 1.6 | 9.7 | 0.00 | 0.51 | 0.10 | 77 | 1012.2 |
| 20260507190927 | 10 | 267 | 1.6 | 9.7 | 0.00 | 0.51 | 0.10 | 77 | 1012.2 |
| 20260507190417 | 10 | 304 | 3.2 | 11.3 | 0.00 | 0.51 | 0.10 | 78 | 1012.2 |
| 20260507190135 | 10 | 263 | 3.2 | 11.3 | 0.00 | 0.51 | 0.10 | 78 | 1012.3 |
| 20260507190054 | 10 | 212 | 1.6 | 11.3 | 0.00 | 0.51 | 0.10 | 78 | 1011.0 |
| 20260507185353 | 10 | 234 | 3.2 | 8.0 | 0.00 | 0.51 | 0.10 | 78 | 1012.3 |
| 20260507184844 | 10 | 242 | 1.6 | 8.0 | 0.00 | 0.51 | 0.10 | 78 | 1012.3 |
| 20260507184521 | 10 | 327 | 0.0 | 6.4 | 0.00 | 0.51 | 0.10 | 78 | 1011.0 |
| 20260507184334 | 10 | 328 | 1.6 | 8.0 | 0.00 | 0.51 | 0.10 | 78 | 1012.3 |
| 20260507184057 | 10 | 314 | 1.6 | 8.0 | 0.00 | 0.51 | 0.10 | 79 | 1012.1 |
| 20260507183326 | 10 | 78 | 1.6 | 4.8 | 0.00 | 0.51 | 0.10 | 79 | 1012.2 |
| 20260507183056 | 10 | 242 | 0.0 | 4.8 | 0.00 | 0.51 | 0.10 | 79 | 1011.0 |
| 20260507182812 | 10 | 242 | 1.6 | 4.8 | 0.00 | 0.51 | 0.10 | 78 | 1012.2 |
| 20260507182301 | 10 | 263 | 1.6 | 4.8 | 0.00 | 0.51 | 0.10 | 79 | 1012.2 |
| 20260507181751 | 10 | 231 | 1.6 | 4.8 | 0.00 | 0.51 | 0.10 | 78 | 1012.1 |
| 20260507181525 | 10 | 219 | 0.0 | 4.8 | 0.00 | 0.51 | 0.10 | 79 | 1010.7 |
| 20260507181243 | 10 | 219 | 1.6 | 4.8 | 0.00 | 0.51 | 0.10 | 79 | 1012.0 |
| 20260507180723 | 10 | 200 | 1.6 | 4.8 | 0.00 | 0.51 | 0.10 | 79 | 1012.0 |
| 20260507180214 | 11 | 225 | 1.6 | 3.2 | 0.00 | 0.51 | 0.10 | 79 | 1012.1 |
| 20260507180045 | 10 | 225 | 1.6 | 4.8 | 0.00 | 0.51 | 0.10 | 79 | 1010.7 |
| 20260507175659 | 11 | 292 | 3.2 | 11.3 | 0.00 | 0.51 | 0.10 | 79 | 1012.0 |
| 20260507175151 | 11 | 252 | 3.2 | 12.9 | 0.00 | 0.51 | 0.10 | 79 | 1012.0 |
| 20260507174910 | 11 | 236 | 3.2 | 12.9 | 0.00 | 0.51 | 0.10 | 79 | 1011.9 |
| 20260507174523 | 11 | 236 | 0.0 | 12.9 | 0.00 | 0.51 | 0.10 | 79 | 1010.6 |
| 20260507174130 | 11 | 232 | 1.6 | 8.0 | 0.00 | 0.51 | 0.10 | 79 | 1011.7 |
| 20260507173619 | 11 | 261 | 1.6 | 9.7 | 0.00 | 0.51 | 0.10 | 79 | 1011.9 |
| 20260507173116 | 11 | 265 | 1.6 | 11.3 | 0.00 | 0.51 | 0.10 | 78 | 1010.5 |
| 20260507173109 | 11 | 265 | 1.6 | 11.3 | 0.00 | 0.51 | 0.10 | 78 | 1011.9 |
| 20260507172556 | 11 | 259 | 1.6 | 11.3 | 0.00 | 0.51 | 0.10 | 79 | 1011.9 |
| 20260507172045 | 11 | 296 | 3.2 | 8.0 | 0.00 | 0.51 | 0.10 | 80 | 1011.9 |
| 20260507171536 | 11 | 240 | 1.6 | 8.0 | 0.00 | 0.51 | 0.10 | 80 | 1011.7 |
| 20260507171521 | 11 | 240 | 1.6 | 8.0 | 0.00 | 0.51 | 0.10 | 80 | 1010.3 |
| 20260507171025 | 11 | 289 | 3.2 | 12.9 | 0.00 | 0.51 | 0.10 | 81 | 1011.9 |
| 20260507170515 | 11 | 257 | 3.2 | 12.9 | 0.00 | 0.51 | 0.10 | 81 | 1011.7 |
| 20260507170047 | 11 | 240 | 3.2 | 11.3 | 0.00 | 0.51 | 0.10 | 81 | 1010.4 |
| 20260507170005 | 11 | 225 | 1.6 | 8.0 | 0.00 | 0.51 | 0.10 | 81 | 1011.7 |
| 20260507165444 | 11 | 278 | 1.6 | 6.4 | 0.00 | 0.51 | 0.10 | 81 | 1011.7 |
| 20260507164934 | 11 | 260 | 1.6 | 6.4 | 0.00 | 0.51 | 0.10 | 80 | 1011.9 |
| 20260507164504 | 11 | 263 | 1.6 | 6.4 | 0.00 | 0.56 | 0.10 | 81 | 1010.3 |
| 20260507164424 | 11 | 277 | 1.6 | 4.8 | 0.00 | 0.51 | 0.10 | 80 | 1011.7 |
| 20260507163913 | 11 | 286 | 1.6 | 4.8 | 0.00 | 0.51 | 0.10 | 80 | 1011.6 |
| 20260507163403 | 12 | 242 | 0.0 | 4.8 | 0.00 | 0.51 | 0.10 | 81 | 1011.7 |
| 20260507163038 | 12 | 242 | 0.0 | 4.8 | 0.00 | 0.56 | 0.10 | 81 | 1010.2 |
| 20260507162853 | 12 | 315 | 0.0 | 3.2 | 0.00 | 0.51 | 0.10 | 82 | 1011.6 |
| 20260507162339 | 12 | 259 | 1.6 | 3.2 | 0.00 | 0.51 | 0.10 | 83 | 1011.6 |
| 20260507161830 | 11 | 5 | 1.6 | 3.2 | 0.00 | 0.51 | 0.10 | 82 | 1011.6 |
| 20260507161501 | 11 | 221 | 0.0 | 3.2 | 0.00 | 0.56 | 0.10 | 83 | 1010.1 |
| 20260507161320 | 11 | 223 | 0.0 | 3.2 | 0.00 | 0.51 | 0.10 | 83 | 1011.6 |
| 20260507160809 | 11 | 312 | 1.6 | 6.4 | 0.00 | 0.53 | 0.10 | 84 | 1011.6 |
| 20260507160259 | 11 | 229 | 1.6 | 6.4 | 0.00 | 0.53 | 0.10 | 83 | 1011.6 |
| 20260507160035 | 11 | 225 | 3.2 | 6.4 | 0.00 | 0.56 | 0.10 | 83 | 1010.2 |
| 20260507155750 | 11 | 238 | 1.6 | 4.8 | 0.00 | 0.56 | 0.10 | 84 | 1011.7 |
| 20260507155235 | 11 | 225 | 1.6 | 4.8 | 0.00 | 0.56 | 0.10 | 83 | 1011.5 |
| 20260507154726 | 11 | 265 | 0.0 | 1.6 | 0.00 | 0.64 | 0.10 | 85 | 1011.6 |
| 20260507154601 | 11 | 265 | 0.0 | 3.2 | 0.00 | 0.69 | 0.10 | 84 | 1010.2 |
| 20260507154214 | 11 | 265 | 1.6 | 4.8 | 0.00 | 0.66 | 0.10 | 84 | 1011.6 |
| 20260507153709 | 11 | 237 | 1.6 | 4.8 | 0.00 | 0.66 | 0.10 | 84 | 1011.7 |
| 20260507153202 | 11 | 238 | 1.6 | 4.8 | 0.00 | 0.69 | 0.10 | 84 | 1011.8 |
| 20260507153036 | 10 | 238 | 3.2 | 4.8 | 0.00 | 0.69 | 0.10 | 84 | 1010.3 |
| 20260507152655 | 10 | 65 | 1.6 | 3.2 | 0.00 | 0.69 | 0.10 | 84 | 1011.9 |
| 20260507152145 | 10 | 65 | 1.6 | 3.2 | 0.00 | 0.69 | 0.10 | 84 | 1011.7 |
| 20260507151911 | 10 | 65 | 1.6 | 3.2 | 0.00 | 0.69 | 0.10 | 84 | 1011.8 |
| 20260507151520 | 10 | 65 | 1.6 | 3.2 | 0.00 | 0.69 | 0.10 | 84 | 1010.3 |
| 20260507151137 | 10 | 61 | 1.6 | 8.0 | 0.00 | 0.69 | 0.10 | 84 | 1011.8 |
| 20260507150906 | 10 | 345 | 1.6 | 8.0 | 0.00 | 0.69 | 0.10 | 84 | 1011.8 |
| 20260507150121 | 10 | 328 | 3.2 | 8.0 | 0.00 | 0.69 | 0.10 | 83 | 1011.8 |
| 20260507150100 | 10 | 328 | 3.2 | 8.0 | 0.00 | 0.69 | 0.10 | 83 | 1010.2 |